This demonstration page uses our WeatherBlox Daily Observations layout. Learn more.

Hourly Observations for December 30, 2019

Temp ( °F °C ) Dew Point ( °F °C ) Humidity (%) Winds ( mph kmh ) Pressure ( in mb ) Visibility ( mi km ) Precip ( " mm )
12:54 am 00:54 Cloudy 27 -2.8 18 -7.8 69 69 NW 28 44 29.65 1004 10 16.0934 0 0
1:40 am 01:40 Cloudy 27 -2.8 17 -8.3 66 66 NW 28 44 29.69 1006 10 16.0934 0 0
1:47 am 01:47 Cloudy 27 -2.8 17 -8.3 66 66 NW 21 33 29.7 1006 10 16.0934 0 0
1:54 am 01:54 Cloudy 27 -2.8 18 -7.8 69 69 NW 25 41 29.67 1005 10 16.0934 0 0
2:54 am 02:54 Cloudy 28 -2.2 18 -7.8 66 66 NW 24 39 29.7 1006 10 16.0934 0 0
3:54 am 03:54 Cloudy 28 -2.2 18 -7.8 66 66 NW 31 50 29.71 1006 10 16.0934 0 0
4:54 am 04:54 Cloudy 27 -2.8 18 -7.8 69 69 NW 30 48 29.73 1007 10 16.0934 0.001 0.001
5:54 am 05:54 Cloudy 28 -2.2 19 -7.2 69 69 NW 20 31 29.75 1008 10 16.0934 0 0
6:54 am 06:54 Cloudy 28 -2.2 19 -7.2 69 69 NW 23 37 29.78 1009 10 16.0934 0 0
7:54 am 07:54 Cloudy 28 -2.2 19 -7.2 69 69 NW 22 35 29.8 1009 10 16.0934 0 0
8:54 am 08:54 Cloudy 28 -2.2 20 -6.7 72 72 NW 23 37 29.84 1010 10 16.0934 0 0
9:54 am 09:54 Cloudy 29 -1.7 20 -6.7 69 69 NW 23 37 29.87 1011 10 16.0934 0 0
10:54 am 10:54 Cloudy 29 -1.7 20 -6.7 69 69 NW 20 31 29.87 1012 10 16.0934 0 0
11:54 am 11:54 Cloudy 30 -1.1 19 -7.2 64 64 NW 20 31 29.88 1012 10 16.0934 0 0
12:54 pm 12:54 Cloudy 30 -1.1 19 -7.2 64 64 NW 24 39 29.88 1012 10 16.0934 0 0
1:54 pm 13:54 Cloudy 30 -1.1 19 -7.2 64 64 NW 23 37 29.88 1012 10 16.0934 0 0
2:54 pm 14:54 Cloudy 30 -1.1 20 -6.7 66 66 NW 24 39 29.91 1013 10 16.0934 0 0
3:54 pm 15:54 Cloudy 31 -0.6 21 -6.1 67 67 NW 18 30 29.94 1014 10 16.0934 0 0
4:54 pm 16:54 Cloudy 31 -0.6 21 -6.1 67 67 NW 20 31 29.96 1015 10 16.0934 0 0
5:54 pm 17:54 Cloudy 31 -0.6 20 -6.7 64 64 NW 17 28 29.97 1015 10 16.0934 0 0
6:31 pm 18:31 Cloudy 31 -0.6 20 -6.7 64 64 WNW 18 30 30.01 1016 10 16.0934 0 0
6:54 pm 18:54 Cloudy 31 -0.6 21 -6.1 67 67 WNW 17 28 29.99 1016 10 16.0934 0 0
7:54 pm 19:54 Cloudy 32 0 20 -6.7 61 61 WNW 16 26 29.98 1015 10 16.0934 0 0
8:54 pm 20:54 Cloudy 32 0 18 -7.8 56 56 NW 17 28 29.96 1015 10 16.0934 0 0
9:54 pm 21:54 Partly Cloudy 31 -0.6 17 -8.3 56 56 WNW 16 26 29.95 1014 10 16.0934 0 0
10:54 pm 22:54 Clear 29 -1.7 17 -8.3 61 61 W 13 20 29.96 1015 10 16.0934 0 0
11:54 pm 23:54 Clear 29 -1.7 17 -8.3 61 61 WNW 15 24 29.96 1015 10 16.0934 0 0

Powered by AerisWeather